Time,TemperatureF,DewpointF,PressureIn,WindDirection,WindDirectionDegrees,WindSpeedMPH,WindSpeedGustMPH,Humidity,HourlyPrecipIn,Conditions,Clouds,dailyrainin,SoftwareType,DateUTC
2013-10-25 08:21:00,49.0,34.0,30.31,NNE,25,0.0,1.0,57,0.00,,,0.00,,2013-10-25 13:21:00,
2013-10-25 08:32:00,49.0,34.0,30.31,NNE,25,0.0,1.0,57,0.00,,,0.00,,2013-10-25 13:32:00,
2013-10-25 08:42:00,49.0,34.0,30.31,NNE,25,0.0,1.0,57,0.00,,,0.00,,2013-10-25 13:42:00,
2013-10-25 09:22:00,54.0,37.0,30.30,East,99,0.0,3.0,52,0.00,,,0.00,,2013-10-25 14:22:00,
2013-10-25 09:32:00,54.0,37.0,30.30,East,99,0.0,3.0,52,0.00,,,0.00,,2013-10-25 14:32:00,
2013-10-25 09:42:00,54.0,37.0,30.30,East,99,0.0,3.0,52,0.00,,,0.00,,2013-10-25 14:42:00,
2013-10-25 09:52:00,56.0,38.0,30.30,East,88,2.0,4.0,51,0.00,,,0.00,,2013-10-25 14:52:00,
2013-10-25 10:01:00,56.0,38.0,30.30,East,88,2.0,4.0,51,0.00,,,0.00,,2013-10-25 15:01:00,
2013-10-25 10:11:00,56.0,38.0,30.30,East,88,2.0,4.0,51,0.00,,,0.00,,2013-10-25 15:11:00,
2013-10-25 10:21:00,59.0,38.0,30.29,ENE,67,2.0,6.0,45,0.00,,,0.00,,2013-10-25 15:21:00,
2013-10-25 10:33:00,59.0,38.0,30.29,ENE,67,2.0,6.0,45,0.00,,,0.00,,2013-10-25 15:33:00,
2013-10-25 10:53:00,62.0,37.0,30.30,ESE,109,1.0,5.0,40,0.00,,,0.00,,2013-10-25 15:53:00,
2013-10-25 11:03:00,62.0,37.0,30.30,ESE,109,1.0,5.0,40,0.00,,,0.00,,2013-10-25 16:03:00,
2013-10-25 11:13:00,62.0,37.0,30.30,ESE,109,1.0,5.0,40,0.00,,,0.00,,2013-10-25 16:13:00,
2013-10-25 11:23:00,65.0,38.0,30.29,NNE,25,2.0,4.0,37,0.00,,,0.00,,2013-10-25 16:23:00,
2013-10-25 11:33:00,65.0,38.0,30.29,NNE,25,2.0,4.0,37,0.00,,,0.00,,2013-10-25 16:33:00,
2013-10-25 11:43:00,65.0,38.0,30.29,NNE,25,2.0,4.0,37,0.00,,,0.00,,2013-10-25 16:43:00,
2013-10-25 11:53:00,67.0,38.0,30.30,ENE,72,0.0,3.0,34,0.00,,,0.00,,2013-10-25 16:53:00,
2013-10-25 12:03:00,67.0,38.0,30.30,ENE,72,0.0,3.0,34,0.00,,,0.00,,2013-10-25 17:03:00,
2013-10-25 12:13:00,67.0,38.0,30.30,ENE,72,0.0,3.0,34,0.00,,,0.00,,2013-10-25 17:13:00,
2013-10-25 12:22:00,65.0,34.0,30.31,South,169,3.0,9.0,31,0.00,,,0.00,,2013-10-25 17:22:00,
2013-10-25 12:33:00,65.0,34.0,30.31,South,169,3.0,9.0,31,0.00,,,0.00,,2013-10-25 17:33:00,
2013-10-25 12:43:00,65.0,34.0,30.31,South,169,3.0,9.0,31,0.00,,,0.00,,2013-10-25 17:43:00,
2013-10-25 12:52:00,65.0,37.0,30.31,SE,145,2.0,8.0,35,0.00,,,0.00,,2013-10-25 17:52:00,
2013-10-25 13:02:00,65.0,37.0,30.31,SE,145,2.0,8.0,35,0.00,,,0.00,,2013-10-25 18:02:00,
2013-10-25 13:12:00,65.0,37.0,30.31,SE,145,2.0,8.0,35,0.00,,,0.00,,2013-10-25 18:12:00,
2013-10-25 13:21:00,63.0,39.0,30.31,SE,133,2.0,5.0,41,0.00,,,0.00,,2013-10-25 18:21:00,
2013-10-25 13:32:00,63.0,39.0,30.31,SE,133,2.0,5.0,41,0.00,,,0.00,,2013-10-25 18:32:00,
2013-10-25 13:52:00,60.0,44.0,30.30,East,95,3.0,6.0,55,0.00,,,0.00,,2013-10-25 18:52:00,
2013-10-25 14:02:00,60.0,44.0,30.30,East,95,3.0,6.0,55,0.00,,,0.00,,2013-10-25 19:02:00,
2013-10-25 14:11:00,60.0,44.0,30.30,East,95,3.0,6.0,55,0.00,,,0.00,,2013-10-25 19:11:00,
2013-10-25 14:22:00,60.0,44.0,30.30,East,90,0.0,4.0,55,0.00,,,0.00,,2013-10-25 19:22:00,
2013-10-25 14:32:00,60.0,44.0,30.30,East,90,0.0,4.0,55,0.00,,,0.00,,2013-10-25 19:32:00,
2013-10-25 14:42:00,60.0,44.0,30.30,East,90,0.0,4.0,55,0.00,,,0.00,,2013-10-25 19:42:00,
2013-10-25 14:52:00,64.0,42.0,30.27,SE,142,2.0,7.0,45,0.00,,,0.00,,2013-10-25 19:52:00,
2013-10-25 15:02:00,64.0,42.0,30.27,SE,142,2.0,7.0,45,0.00,,,0.00,,2013-10-25 20:02:00,
2013-10-25 15:12:00,64.0,42.0,30.27,SE,142,2.0,7.0,45,0.00,,,0.00,,2013-10-25 20:12:00,
2013-10-25 15:22:00,68.0,42.0,30.27,SE,130,3.0,10.0,39,0.01,,,0.01,,2013-10-25 20:22:00,
2013-10-25 15:32:00,68.0,42.0,30.27,SE,130,3.0,10.0,39,0.01,,,0.01,,2013-10-25 20:32:00,
2013-10-25 15:52:00,67.0,43.0,30.25,East,94,4.0,12.0,42,0.01,,,0.01,,2013-10-25 20:52:00,
2013-10-25 16:02:00,67.0,43.0,30.25,East,94,4.0,12.0,42,0.01,,,0.01,,2013-10-25 21:02:00,
2013-10-25 16:11:00,67.0,43.0,30.25,East,94,4.0,12.0,42,0.01,,,0.01,,2013-10-25 21:11:00,
2013-10-25 16:22:00,68.0,43.0,30.25,ENE,57,3.0,11.0,41,0.00,,,0.01,,2013-10-25 21:22:00,
2013-10-25 16:33:00,68.0,43.0,30.25,ENE,57,3.0,11.0,41,0.00,,,0.01,,2013-10-25 21:33:00,
2013-10-25 16:43:00,68.0,43.0,30.25,ENE,57,3.0,11.0,41,0.00,,,0.01,,2013-10-25 21:43:00,
2013-10-25 16:54:00,67.0,42.0,30.22,ENE,63,3.0,12.0,40,0.00,,,0.01,,2013-10-25 21:54:00,
2013-10-25 17:04:00,67.0,42.0,30.22,ENE,63,3.0,12.0,40,0.00,,,0.01,,2013-10-25 22:04:00,
2013-10-25 17:23:00,68.0,42.0,30.22,East,90,2.0,7.0,39,0.00,,,0.01,,2013-10-25 22:23:00,
2013-10-25 17:34:00,68.0,42.0,30.22,East,90,2.0,7.0,39,0.00,,,0.01,,2013-10-25 22:34:00,
2013-10-25 17:42:00,68.0,42.0,30.22,East,90,2.0,7.0,39,0.00,,,0.01,,2013-10-25 22:42:00,
2013-10-25 17:53:00,68.0,43.0,30.21,ESE,114,2.0,9.0,40,0.00,,,0.01,,2013-10-25 22:53:00,
2013-10-25 18:03:00,68.0,43.0,30.21,ESE,114,2.0,9.0,40,0.00,,,0.01,,2013-10-25 23:03:00,
2013-10-25 18:12:00,68.0,43.0,30.21,ESE,114,2.0,9.0,40,0.00,,,0.01,,2013-10-25 23:12:00,
2013-10-25 18:22:00,67.0,43.0,30.21,ESE,114,4.0,10.0,42,0.00,,,0.01,,2013-10-25 23:22:00,
2013-10-25 18:34:00,67.0,43.0,30.21,ESE,114,4.0,10.0,42,0.00,,,0.01,,2013-10-25 23:34:00,
2013-10-25 18:42:00,67.0,43.0,30.21,ESE,114,4.0,10.0,42,0.00,,,0.01,,2013-10-25 23:42:00,
2013-10-25 18:52:00,67.0,43.0,30.20,East,99,4.0,11.0,41,0.00,,,0.01,,2013-10-25 23:52:00,
2013-10-25 19:02:00,67.0,43.0,30.20,East,99,4.0,11.0,41,0.00,,,0.01,,2013-10-26 00:02:00,
2013-10-25 19:11:00,67.0,43.0,30.20,East,99,4.0,11.0,41,0.00,,,0.01,,2013-10-26 00:11:00,
2013-10-25 19:22:00,63.0,42.0,30.22,ENE,74,4.0,10.0,46,0.00,,,0.01,,2013-10-26 00:22:00,
2013-10-25 19:30:00,61.0,42.0,30.22,SE,134,3.0,7.0,50,0.00,,,0.01,,2013-10-26 00:30:00,
2013-10-25 19:32:00,63.0,42.0,30.22,ENE,74,4.0,10.0,46,0.00,,,0.01,,2013-10-26 00:32:00,
2013-10-25 19:42:00,63.0,42.0,30.22,ENE,74,4.0,10.0,46,0.00,,,0.01,,2013-10-26 00:42:00,
2013-10-25 19:52:00,61.0,42.0,30.22,SE,134,3.0,7.0,50,0.00,,,0.01,,2013-10-26 00:52:00,
2013-10-25 20:01:00,61.0,42.0,30.22,SE,134,3.0,7.0,50,0.00,,,0.01,,2013-10-26 01:01:00,
2013-10-25 20:12:00,61.0,42.0,30.22,SE,134,3.0,7.0,50,0.00,,,0.01,,2013-10-26 01:12:00,
2013-10-25 20:22:00,61.0,42.0,30.22,SE,134,3.0,7.0,50,0.00,,,0.01,,2013-10-26 01:22:00,
2013-10-25 20:52:00,58.0,43.0,30.23,ESE,110,1.0,2.0,57,-99.99,,,-99.99,,2013-10-26 01:52:00,
2013-10-25 21:02:00,58.0,43.0,30.23,ESE,110,1.0,2.0,57,-99.99,,,-99.99,,2013-10-26 02:02:00,
2013-10-25 21:12:00,58.0,43.0,30.23,ESE,110,1.0,2.0,57,-99.99,,,-99.99,,2013-10-26 02:12:00,
2013-10-25 21:22:00,57.0,43.0,30.24,ENE,75,0.0,0.0,60,-99.99,,,-99.99,,2013-10-26 02:22:00,
2013-10-25 21:32:00,57.0,43.0,30.24,ENE,75,0.0,0.0,60,-99.99,,,-99.99,,2013-10-26 02:32:00,
2013-10-25 21:43:00,57.0,43.0,30.24,ENE,75,0.0,0.0,60,-99.99,,,-99.99,,2013-10-26 02:43:00,
2013-10-25 21:52:00,56.0,44.0,30.24,ENE,75,0.0,2.0,65,0.00,,,-99.99,,2013-10-26 02:52:00,
2013-10-25 22:02:00,56.0,44.0,30.24,ENE,75,0.0,2.0,65,0.00,,,-99.99,,2013-10-26 03:02:00,
2013-10-25 22:12:00,56.0,44.0,30.24,ENE,75,0.0,2.0,65,0.00,,,-99.99,,2013-10-26 03:12:00,
2013-10-25 22:22:00,53.0,43.0,30.23,ENE,75,0.0,1.0,70,0.00,,,-99.99,,2013-10-26 03:22:00,
2013-10-25 22:35:00,53.0,43.0,30.23,ENE,75,0.0,1.0,70,0.00,,,-99.99,,2013-10-26 03:35:00,
2013-10-25 22:54:00,53.0,45.0,30.24,NE,56,0.0,0.0,73,0.00,,,-99.99,,2013-10-26 03:54:00,
2013-10-25 23:04:00,53.0,45.0,30.24,NE,56,0.0,0.0,73,0.00,,,-99.99,,2013-10-26 04:04:00,
2013-10-25 23:14:00,53.0,45.0,30.24,NE,56,0.0,0.0,73,0.00,,,-99.99,,2013-10-26 04:14:00,
2013-10-25 23:24:00,53.0,45.0,30.24,NNE,29,1.0,2.0,75,0.00,,,-99.99,,2013-10-26 04:24:00,
2013-10-25 23:33:00,53.0,45.0,30.24,NNE,29,1.0,2.0,75,0.00,,,-99.99,,2013-10-26 04:33:00,
2013-10-25 23:44:00,53.0,45.0,30.24,NNE,29,1.0,2.0,75,0.00,,,-99.99,,2013-10-26 04:44:00,
2013-10-25 23:54:00,52.0,45.0,30.23,NW,311,0.0,2.0,77,0.00,,,-99.99,,2013-10-26 04:54:00,